SCP
0 0 0 0 0 0 0 0 0 0 0 0 0 0 0 0 0 0 0 0 0 0 0 0 0 0 0 0 0 0 0 0 0 0 0 0 0 0
0 0 0 0 0 0 0 0 0 0 0 0 0 0 0 0 0 0 0 0 0 0 0 0 0 0 0 0 0 0 0 0 0 0 0 0 0 0
0 0 0 0 0 0 0 0 0 0 0 0 0 0 0 0 0 0 0 0 0 0 0 0 0 0 0 0 0 0 0 0 0 0 0 0 0 0
0 0 0 0 0 0 0 0 0 0 0 0 0 0 0 0 0 0 0 0 0 0 0 0 0 0 0 0 0 0 0 0 0 0 0 0 0 0
0 0 0 0 0 0 0 0 0 0 0 0 0 0 0 0 0 0 0 0 0 0 0 0 0 0 0 0 0 0 0 0 0 0 0 0 0 0
0 0 0 0 0 0 0 0 0 0 0 0 0 0 0 0 0 0 0 0 0 0 0 0 0 0 0 0 0 0 0 0 0 0 0 0 0 0
0 0 0 0 0 0 0 0 0 0 0 0 0 0 0 0 0 0 0 0 0 0 0 0 0 0 0 0 0 0 0 0 0 0 0 0 0 0
0 0 0 0 0 0 0 0 0 0 0 0 0 0 0 0 0 0 0 0 0 0 0 0 0 0 0 0 0 0 0 0 0 0 0 0 0 0
0 0 0 0 0 0 0 0 0 0 0 0 0 0 0 0 0 0 0 0 0 0 0 0 0 0 0 0 0 0 0 0 0 0 0 0 0 0
0 0 0 0 0 0 0 0 0 0 0 0 0 0 0 0 0 0 0 0 0 0 0 0 0 0 0 0 0 0 0 0 0 0 0 0 0 0
0 0 0 0 0 0 0 0 0 0 0 0 0 0 0 0 0 0 0 0 0 0 0 0 0 0 0 0 0 0 0 0 0 0 0 0 0 0
0 0 0 0 0 0 0 0 0 0 0 0 0 0 0 0 0 0 0 0 0 0 0 0 0 0 0 0 0 0 0 0 0 0 0 0 0 0
0 0 0 0 0 0 0 0 0 0 0 0 0 0 0 0 0 0 0 0 0 0 0 0 0 0 0 0 0 0 0 0 0 0 0 0 0 0
0 0 0 0 0 0 0 0 0 0 0 0 0 0 0 0 0 0 0 0 0 0 0 0 0 0 0 0 0 0 0 0 0 0 0 0 0 0
0 0 0 0 0 0 0 0 0 0 0 0 0 0 0 0 0 0 0 0 0 0 0 0 0 0 0 0 0 0 0 0 0 0 0 0 0 0
0 0 0 0 0 0 0 0 0 0 0 0 0 0 0 0 0 0 0 0 0 0 0 0 0 0 0 0 0 0 0 0 0 0 0 0 0 0
0 0 0 0 0 0 0 0 0 0 0 0 0 0 0 0 0 0 0 0 0 0 0 0 0 0 0 0 0 0 0 0 0 0 0 0 0 0
0 0 0 0 0 0 0 0 0 0 0 0 0 0 0 0 0 0 0 0 0 0 0 0 0 0 0 0 0 0 0 0 0 0 0 0 0 0
0 0 0 0 0 0 0 0 0 0 0 0 0 0 0 0 0 0 0 0 0 0 0 0 0 0 0 0 0 0 0 0 0 0 0 0 0 0
0 0 0 0 0 0 0 0 0 0 0 0 0 0 0 0 0 0 0 0 0 0 0 0 0 0 0 0 0 0 0 0 0 0 0 0 0 0
0 0 0 0 0 0 0 0 0 0 0 0 0 0 0 0 0 0 0 0 0 0 0 0 0 0 0 0 0 0 0 0 0 0 0 0 0 0
0 0 0 0 0 0 0 0 0 0 0 0 0 0 0 0 0 0 0 0 0 0 0 0 0 0 0 0 0 0 0 0 0 0 0 0 0 0
0 0 0 0 0 0 0 0 0 0 0 0 0 0 0 0 0 0 0 0 0 0 0 0 0 0 0 0 0 0 0 0 0 0 0 0 0 0
Wind_Speed
15 15 13 10 7 6 5 7 8 8 11 11 8 11 11 10 16 12 10 18 20 19 17 15 14 13 13 12 12 12 13 13 14 14 15 17 18 19
12 15 15 10 8 8 8 7 7 8 8 9 10 7 11 11 17 12 12 19 20 19 18 16 15 14 14 13 13 13 14 14 14 15 16 17 18 20
13 15 16 13 11 10 9 9 9 7 8 4 5 5 10 11 10 10 9 10 10 19 18 17 16 15 15 15 14 14 14 15 15 16 17 18 19 20
15 15 16 12 15 11 10 12 11 9 8 6 5 5 8 11 10 10 9 8 7 15 18 17 16 15 16 15 15 15 15 15 15 16 17 18 19 20
13 15 15 14 15 12 12 12 10 8 6 5 5 4 3 6 8 6 6 5 6 10 15 16 16 16 16 16 15 15 14 15 15 16 17 18 19 20
11 11 12 14 15 14 12 12 9 9 7 6 5 4 4 5 7 6 6 6 6 6 10 11 13 16 16 16 15 14 14 15 16 16 17 17 18 20
9 9 10 12 14 12 10 10 11 10 8 7 6 5 6 7 9 7 8 5 5 5 4 5 6 6 7 11 13 13 14 15 16 16 17 17 18 19
10 9 8 9 12 16 17 16 16 13 12 10 8 9 9 8 7 7 6 5 5 5 5 5 4 6 6 5 10 14 15 15 15 15 16 17 18 19
9 7 6 6 8 8 13 16 16 19 18 12 11 10 10 10 11 9 8 6 5 4 5 4 4 5 4 6 13 14 14 14 13 14 15 17 18 19
8 8 7 6 7 8 7 8 8 10 12 9 8 8 8 9 10 9 7 4 2 2 5 4 3 4 3 4 11 13 12 11 12 13 14 16 18 19
6 6 7 6 10 13 9 8 8 6 10 10 9 10 13 14 12 7 6 5 4 4 5 4 3 2 2 3 6 10 9 9 11 12 14 16 18 18
4 5 7 9 11 14 9 9 9 7 7 7 8 10 9 11 14 9 8 6 4 4 5 5 3 3 3 2 1 2 3 6 9 11 14 15 17 11
4 4 4 11 13 14 12 8 10 8 7 7 6 5 5 5 6 6 6 6 5 4 5 6 4 3 3 2 2 2 2 2 2 5 9 13 16 13
4 3 4 10 12 13 10 10 12 9 5 5 5 5 5 5 5 5 6 5 4 4 6 7 4 5 4 3 3 2 2 2 2 3 3 9 12 15
3 6 7 10 11 9 10 10 8 5 5 5 5 5 4 4 4 3 4 3 2 2 4 5 4 4 4 4 3 2 2 2 2 2 3 5 6 7
3 4 7 8 6 4 4 6 4 4 5 4 4 3 3 4 4 4 3 3 2 1 1 3 4 4 3 3 3 3 3 3 2 3 4 5 6 6
4 2 2 2 2 2 2 3 3 4 4 3 3 3 3 4 3 3 3 3 3 3 2 1 2 2 1 2 3 4 3 3 3 3 4 5 6 6
5 3 2 2 2 2 2 2 2 2 2 3 3 3 3 3 3 3 2 3 3 3 3 2 2 2 2 2 4 4 3 3 3 3 3 5 7 6
3 2 2 2 1 2 2 2 1 1 1 2 2 2 2 3 3 3 3 3 3 3 2 3 3 4 2 3 4 4 3 2 2 3 4 4 7 8
3 2 2 2 2 1 1 1 1 1 1 1 1 1 2 2 2 3 3 3 3 3 2 2 3 5 5 4 3 3 3 2 2 4 5 5 7 11
3 3 2 2 2 2 2 2 1 1 1 1 1 1 1 1 2 2 2 3 3 3 4 4 3 3 2 2 0 3 3 5 6 5 5 6 6 5
3 3 3 2 2 2 2 2 2 1 1 1 1 1 1 1 2 2 2 2 2 3 2 1 2 2 2 3 4 3 3 4 7 12 12 10 5 4
3 3 2 2 2 2 1 1 1 1 0 1 1 1 1 1 1 1 2 2 2 2 2 2 1 1 2 2 3 3 4 4 3 4 5 9 12 14
Wind_Direction
221 221 223 222 210 204 187 184 182 198 218 213 208 205 203 199 206 204 201 212 214 217 221 226 232 241 249 257 266 275 283 290 295 300 304 308 311 313
219 223 224 223 215 205 204 208 209 214 223 202 204 194 195 201 206 200 202 209 216 220 223 227 234 242 250 258 266 273 281 288 293 298 303 306 309 310
222 222 225 221 220 215 209 209 212 208 227 205 182 175 187 195 198 196 196 203 212 220 224 229 235 242 250 257 264 272 279 286 292 297 300 303 306 309
226 224 225 221 222 219 214 214 214 209 209 201 179 176 191 197 192 193 196 201 204 219 225 231 237 243 250 256 263 270 277 284 290 294 298 301 304 307
229 226 225 220 223 220 216 215 212 205 197 184 176 169 171 183 181 189 192 197 204 219 227 234 240 246 251 256 262 269 276 282 287 291 295 298 302 305
236 233 228 222 223 219 217 215 203 195 188 179 168 162 159 163 172 182 196 203 211 209 226 232 241 248 251 256 262 268 274 279 284 289 293 297 301 303
241 238 235 230 226 219 214 206 195 194 187 185 178 168 169 168 185 186 200 195 210 201 210 225 232 237 242 255 262 265 272 278 283 288 293 298 301 304
244 242 238 231 228 223 220 209 198 192 190 188 189 188 186 182 172 178 180 176 212 196 195 222 207 229 234 230 252 264 272 278 283 290 296 300 303 306
238 239 237 227 220 220 221 215 210 208 199 188 191 189 181 179 173 178 185 189 197 168 170 219 206 230 228 238 254 261 268 276 284 293 299 303 306 308
233 230 231 223 211 205 202 202 200 205 203 197 190 184 176 171 177 177 176 168 132 167 170 209 208 227 231 231 252 258 268 277 289 298 302 307 310 310
230 223 218 216 215 208 200 197 193 196 201 190 181 175 174 172 164 148 151 164 195 200 184 197 204 217 236 238 247 254 263 278 292 301 307 310 311 314
224 217 216 214 213 207 199 192 190 180 169 169 171 172 171 174 176 174 172 178 183 202 187 186 185 177 248 240 237 241 265 279 293 305 309 312 314 316
219 214 214 217 215 211 201 194 193 173 170 167 161 160 162 170 180 185 187 189 197 207 178 175 177 177 205 240 240 231 219 252 299 304 307 311 313 314
217 201 207 215 214 211 205 198 194 176 162 163 166 175 178 183 187 188 193 203 209 205 173 170 176 177 182 210 239 227 228 247 265 280 290 307 310 310
198 194 200 211 210 209 207 198 184 171 166 173 182 188 185 180 168 170 182 190 189 169 163 171 177 176 184 205 213 204 240 251 249 267 290 298 300 304
176 186 195 205 202 186 187 191 174 170 174 182 183 174 160 166 177 177 183 180 181 178 141 163 175 178 194 205 212 228 216 245 255 274 288 290 294 292
137 129 142 157 179 157 158 161 160 166 179 180 173 170 172 178 178 171 172 172 183 181 174 135 108 98 167 186 223 237 241 248 260 283 296 295 291 291
131 136 146 153 158 160 162 157 158 172 177 168 168 173 178 179 171 161 162 178 196 194 181 164 137 78 20 313 230 234 238 245 263 284 287 289 293 293
115 118 126 132 132 132 132 132 142 133 132 148 162 168 169 169 167 175 177 180 193 191 181 164 162 161 195 259 282 235 212 232 268 276 272 272 287 296
76 94 95 94 97 101 101 102 110 106 101 116 131 146 157 166 179 187 188 188 191 183 178 180 189 189 200 214 230 271 272 256 248 275 285 283 280 290
59 64 63 66 67 70 73 77 90 102 99 108 121 136 150 157 184 192 192 189 183 184 200 209 203 166 124 99 234 274 274 271 280 278 284 289 291 286
48 52 49 52 57 65 71 79 80 84 97 109 135 150 161 173 190 194 192 189 196 197 199 168 123 127 155 195 230 253 275 292 297 296 286 274 270 279
35 37 38 36 36 41 54 76 93 104 130 159 165 173 168 181 192 188 189 184 174 176 164 160 156 172 197 207 229 253 272 290 293 296 289 291 290 289